Location: New Canada
(47.1017°N, 68.5042°W)
Time: 17:08:13
(UTC+00:00)

RS-44 - Pass Details

Date: 17 April 2024
Orbit: 1174 x 1511 km, 82.5° (Epoch: 20 May)

Event Time Altitude Azimuth Distance (km) Brightness Sun altitude
Rises 01:19:03 0° 197° (SSW) 4,640 ? -17.9°
Reaches altitude 10° 01:22:00 10° 200° (SSW) 3,661 ? -18.3°
Maximum altitude 01:30:51 68° 282° (WNW) 1,578 ? -19.4°
Drops below altitude 10° 01:39:24 10° 6° (N) 3,534 ? -20.5°
Sets 01:42:13 0° 9° (N) 4,472 ? -20.8°
